[Iaude] MPEC K86: 2017 BC232 [a=45.06,e=0.03,i=1.6,H=7.72]
    mpec at cfa.harvard.edu 
    mpec at cfa.harvard.edu
       
    Thu May 23 13:29:33 EDT 2024
    
    
  
M.P.E.C. 2024-K86                                  Issued 2024 May 23, 17:28 UT
     The Minor Planet Electronic Circulars contain information on unusual
         minor planets, routine data on comets and natural satellites,
         and occasional editorial announcements.  They are published
    on behalf of Division F of the International Astronomical Union by the
          Minor Planet Center, Smithsonian Astrophysical Observatory,
                          Cambridge, MA 02138, U.S.A.
			  
             Prepared using the Tamkin Foundation Computer Network
                              MPC at CFA.HARVARD.EDU
            URL https://www.minorplanetcenter.net/    ISSN 1523-6714
                                   2017 BC232                                   
Additional Observations:
     K17BN2C 1C2016 04 02.38826012 20 15.41 -00 27 18.2                WEK086T09
     K17BN2C 1C2016 04 02.49092012 20 14.96 -00 27 15.4                WEK086T09
     K17BN2C 1C2016 06 04.25194712 17 08.59 -00 08 29.7                WEK086T09
     K17BN2C 1C2016 06 04.33516412 17 08.50 -00 08 29.4                WEK086T09
Observer details:
T09 Subaru Telescope, Maunakea.  Observer .  Measurer S. Deen.  8.3-m Subaru
    Telescope + CCD.
Orbital elements:
2017 BC232                                                                      
Epoch 2024 Mar. 31.0 TT = JDT 2460400.5                 Alexandersen            
M 317.26919              (2000.0)            P               Q                  
n   0.00325886     Peri.  126.27067     -0.49909122     +0.86615051             
a  45.0566505      Node   113.76930     -0.80397275     -0.45151642             
e   0.0297552      Incl.    1.64624     -0.32331992     -0.21428068             
P 302              H    7.72          G   0.15           U   8                  
Residuals in seconds of arc
160402 T09  0.1+  0.0     170123 T09  0.1+  0.1+    170128 T09  0.1-  0.1-
160402 T09  0.1-  0.0     170123 T09  0.0   0.1+    170128 T09  0.0   0.0
160604 T09  0.0   0.0     170123 T09  0.2-  0.1+    170128 T09  0.0   0.0
160604 T09  0.0   0.0     170128 T09  0.0   0.2-    170223 T09  0.0   0.1+
170123 T09  0.0   0.2-    170128 T09  0.2-  0.0     170223 T09  0.1-  0.0
170123 T09  0.1+  0.0     170128 T09  0.0   0.1+    170223 T09  0.1+  0.1+
170123 T09  0.1+  0.1-    170128 T09  0.0   0.0
Ephemeris:
2017 BC232               a,e,i = 45.06, 0.03, 2                  q = 43.7160
Date    TT    R. A. (2000) Decl.     Delta      r    Elong.  Phase     V
2024 04 23    12 56 18.9 -04 13 04  43.1349 44.0896   161.5     0.4    24.2
...
2024 05 08    12 55 21.9 -04 07 22  43.2414 44.0888   146.7     0.7    24.2
...
2024 05 16    12 54 55.6 -04 04 49  43.3215 44.0884   138.9     0.9    24.3
...
2024 05 22    12 54 38.2 -04 03 10  43.3908 44.0881   133.1     1.0    24.3
2024 05 23    12 54 35.5 -04 02 55  43.4031 44.0880   132.1     1.0    24.3
2024 05 24    12 54 32.9 -04 02 40  43.4156 44.0880   131.1     1.0    24.3
...
2024 05 30    12 54 18.6 -04 01 22  43.4942 44.0876   125.3     1.1    24.3
...
2024 06 07    12 54 03.3 -04 00 02  43.6084 44.0872   117.6     1.2    24.3
...
2024 06 22    12 53 47.9 -03 58 59  43.8437 44.0864   103.2     1.3    24.3
M. P. C. Staff               (C) Copyright 2024 MPC           M.P.E.C. 2024-K86
    
    
More information about the Iaude
mailing list